^^
Station Historical Data
Daily Summary for November 8, 2018 Units:  English    Metric   Both
« Previous Day
Next Day »
Daily Weekly Monthly Yearly Custom
  High: Low: Average:
Temperature: TemperatureF °F 52.5 °F 55.7 °F
Dew Point: DewpointF °F 32.9 °F 41.6 °F
Humidity: Humidity% 45% 60%
Wind Speed: WindSpeedMPHmph 0.0mph 0mph
Wind Gust: WindSpeedGustMPHmph - -
Wind- - North
Pressure: PressureIn in 30.11 in -
Precipitation: 0.02 in    
Historical Graphs
 
 
Tabular Data for November 8, 2018
Time Temperature Dew Point Pressure Wind Wind Speed Wind Gust Humidity Rainfall Rate (Hourly)
TemperatureF °F DewpointF °F PressureIn in Calm     Humidity% HourlyPrecipIn in
00:03 54.0 °F 34.2 °F 30.13 in Calm     47% 0.00 in
00:09 54.0 °F 34.2 °F 30.13 in Calm     47% 0.00 in
00:14 54.0 °F 34.2 °F 30.13 in Calm     47% 0.00 in
00:19 54.1 °F 34.3 °F 30.13 in Calm     47% 0.00 in
00:24 54.1 °F 34.3 °F 30.13 in Calm     47% 0.00 in
00:29 54.0 °F 34.2 °F 30.13 in Calm     47% 0.00 in
00:34 54.0 °F 35.2 °F 30.13 in Calm     49% 0.00 in
00:38 54.0 °F 35.2 °F 30.13 in Calm     49% 0.00 in
00:44 54.0 °F 34.2 °F 30.13 in Calm     47% 0.00 in
00:49 54.0 °F 34.2 °F 30.13 in Calm     47% 0.00 in
00:54 54.0 °F 34.2 °F 30.12 in Calm     47% 0.00 in
00:58 54.0 °F 34.2 °F 30.12 in Calm     47% 0.00 in
01:04 54.0 °F 34.2 °F 30.13 in Calm     47% 0.00 in
01:08 54.0 °F 34.2 °F 30.13 in Calm     47% 0.00 in
01:14 54.0 °F 34.2 °F 30.13 in Calm     47% 0.00 in
01:18 54.0 °F 35.2 °F 30.13 in Calm     49% 0.00 in
01:24 54.0 °F 34.2 °F 30.12 in Calm     47% 0.00 in
01:29 53.8 °F 34.0 °F 30.12 in Calm     47% 0.00 in
01:34 53.8 °F 34.0 °F 30.12 in Calm     47% 0.00 in
01:39 53.4 °F 33.6 °F 30.12 in Calm     47% 0.00 in
01:44 53.2 °F 33.4 °F 30.12 in Calm     47% 0.00 in
01:46 53.2 °F 33.4 °F 30.12 in Calm     47% 0.00 in
01:51 53.1 °F 33.4 °F 30.11 in Calm     47% 0.00 in
01:59 53.1 °F 33.4 °F 30.12 in Calm     47% 0.00 in
02:02 53.1 °F 33.4 °F 30.12 in Calm     47% 0.00 in
02:09 53.1 °F 33.4 °F 30.12 in Calm     47% 0.00 in
02:12 53.1 °F 33.4 °F 30.11 in Calm     47% 0.00 in
02:19 53.1 °F 33.4 °F 30.11 in Calm     47% 0.00 in
02:24 52.9 °F 33.3 °F 30.11 in Calm     47% 0.00 in
02:28 52.9 °F 33.3 °F 30.11 in Calm     47% 0.00 in
02:34 52.9 °F 33.3 °F 30.11 in Calm     47% 0.00 in
02:38 52.9 °F 33.8 °F 30.11 in Calm     48% 0.00 in
02:44 52.7 °F 33.1 °F 30.11 in Calm     47% 0.00 in
02:49 52.7 °F 33.1 °F 30.12 in Calm     47% 0.00 in
02:54 52.5 °F 32.9 °F 30.12 in Calm     47% 0.00 in
02:59 52.5 °F 32.9 °F 30.12 in Calm     47% 0.00 in
03:04 52.5 °F 32.9 °F 30.11 in Calm     47% 0.00 in
03:07 52.5 °F 32.9 °F 30.11 in Calm     47% 0.00 in
03:14 52.7 °F 33.1 °F 30.11 in Calm     47% 0.00 in
03:19 52.7 °F 33.1 °F 30.11 in Calm     47% 0.00 in
03:23 52.9 °F 33.3 °F 30.11 in Calm     47% 0.00 in
03:26 52.9 °F 33.3 °F 30.12 in Calm     47% 0.00 in
03:34 52.9 °F 33.3 °F 30.12 in Calm     47% 0.00 in
03:37 52.9 °F 33.3 °F 30.12 in Calm     47% 0.00 in
03:44 52.9 °F 33.3 °F 30.12 in Calm     47% 0.00 in
03:49 52.9 °F 33.3 °F 30.11 in Calm     47% 0.00 in
03:54 52.9 °F 33.3 °F 30.12 in Calm     47% 0.00 in
03:59 52.9 °F 33.3 °F 30.11 in Calm     47% 0.00 in
04:02 52.9 °F 33.3 °F 30.11 in Calm     47% 0.00 in
04:09 52.9 °F 33.3 °F 30.11 in Calm     47% 0.00 in
04:14 52.9 °F 33.3 °F 30.11 in Calm     47% 0.00 in
04:19 52.9 °F 33.3 °F 30.11 in Calm     47% 0.00 in
04:24 52.9 °F 33.3 °F 30.11 in Calm     47% 0.00 in
04:29 53.1 °F 33.4 °F 30.11 in Calm     47% 0.00 in
04:34 53.1 °F 33.4 °F 30.11 in Calm     47% 0.00 in
04:38 53.2 °F 33.4 °F 30.11 in Calm     47% 0.00 in
04:42 53.2 °F 33.4 °F 30.11 in Calm     47% 0.00 in
04:47 53.2 °F 33.4 °F 30.11 in Calm     47% 0.00 in
04:53 53.2 °F 33.4 °F 30.11 in Calm     47% 0.00 in
04:59 53.1 °F 33.4 °F 30.11 in Calm     47% 0.00 in
05:04 53.1 °F 33.4 °F 30.11 in Calm     47% 0.00 in
05:09 53.1 °F 33.4 °F 30.11 in Calm     47% 0.00 in
05:12 52.9 °F 33.3 °F 30.11 in Calm     47% 0.00 in
05:18 52.9 °F 33.3 °F 30.11 in Calm     47% 0.00 in
05:24 52.9 °F 33.3 °F 30.11 in Calm     47% 0.00 in
05:28 52.9 °F 33.3 °F 30.11 in Calm     47% 0.00 in
05:34 52.9 °F 33.3 °F 30.11 in Calm     47% 0.00 in
05:39 52.9 °F 33.3 °F 30.11 in Calm     47% 0.00 in
05:44 52.7 °F 33.1 °F 30.12 in Calm     47% 0.00 in
05:48 52.5 °F 32.9 °F 30.11 in Calm     47% 0.00 in
05:54 52.5 °F 32.9 °F 30.11 in Calm     47% 0.00 in
05:58 52.5 °F 32.9 °F 30.11 in Calm     47% 0.00 in
06:03 52.5 °F 32.9 °F 30.12 in Calm     47% 0.00 in
06:09 52.7 °F 33.1 °F 30.12 in Calm     47% 0.00 in
06:14 52.9 °F 33.3 °F 30.12 in Calm     47% 0.00 in
06:19 52.9 °F 33.3 °F 30.12 in Calm     47% 0.00 in
06:24 52.9 °F 33.3 °F 30.12 in Calm     47% 0.00 in
06:29 52.9 °F 33.3 °F 30.13 in Calm     47% 0.00 in
06:33 52.9 °F 33.3 °F 30.13 in Calm     47% 0.00 in
06:39 52.9 °F 33.3 °F 30.12 in Calm     47% 0.00 in
06:44 52.9 °F 33.3 °F 30.12 in Calm     47% 0.00 in
06:49 52.9 °F 33.3 °F 30.12 in Calm     47% 0.00 in
06:54 52.9 °F 33.3 °F 30.12 in Calm     47% 0.00 in
06:59 52.7 °F 33.1 °F 30.12 in Calm     47% 0.00 in
07:04 52.5 °F 32.9 °F 30.13 in Calm     47% 0.00 in
07:07 52.5 °F 32.9 °F 30.13 in Calm     47% 0.00 in
07:14 52.5 °F 32.9 °F 30.13 in Calm     47% 0.00 in
07:18 52.5 °F 32.9 °F 30.13 in Calm     47% 0.00 in
07:22 52.5 °F 32.9 °F 30.13 in Calm     47% 0.00 in
07:26 52.5 °F 32.9 °F 30.13 in Calm     47% 0.00 in
07:34 52.5 °F 32.9 °F 30.13 in Calm     47% 0.00 in
07:38 52.5 °F 32.9 °F 30.13 in Calm     47% 0.00 in
07:42 52.5 °F 32.9 °F 30.13 in Calm     47% 0.00 in
07:49 52.9 °F 33.3 °F 30.13 in Calm     47% 0.00 in
07:54 53.1 °F 33.4 °F 30.14 in Calm     47% 0.00 in
07:57 53.1 °F 33.4 °F 30.14 in Calm     47% 0.00 in
08:04 53.1 °F 33.4 °F 30.14 in Calm     47% 0.00 in
08:09 53.2 °F 33.4 °F 30.14 in Calm     47% 0.00 in
08:13 53.2 °F 33.4 °F 30.15 in Calm     47% 0.00 in
08:18 53.4 °F 33.1 °F 30.15 in Calm     46% 0.00 in
08:23 53.4 °F 33.1 °F 30.15 in Calm     46% 0.00 in
08:29 53.6 °F 33.3 °F 30.15 in Calm     46% 0.00 in
08:34 53.8 °F 33.4 °F 30.15 in Calm     46% 0.00 in
08:37 53.8 °F 33.4 °F 30.15 in Calm     46% 0.00 in
08:44 54.0 °F 33.6 °F 30.16 in Calm     46% 0.00 in
08:49 54.0 °F 33.6 °F 30.16 in Calm     46% 0.00 in
08:54 54.0 °F 33.6 °F 30.16 in Calm     46% 0.00 in
08:58 54.1 °F 33.8 °F 30.16 in Calm     46% 0.00 in
09:03 54.1 °F 33.8 °F 30.16 in Calm     46% 0.00 in
09:09 54.3 °F 34.0 °F 30.16 in Calm     46% 0.00 in
09:14 54.7 °F 34.3 °F 30.16 in Calm     46% 0.00 in
09:19 54.9 °F 34.5 °F 30.16 in Calm     46% 0.00 in
09:24 55.0 °F 34.7 °F 30.15 in Calm     46% 0.00 in
09:29 55.0 °F 34.7 °F 30.15 in Calm     46% 0.00 in
09:33 55.0 °F 34.7 °F 30.16 in Calm     46% 0.00 in
09:39 55.2 °F 34.9 °F 30.16 in Calm     46% 0.00 in
09:43 55.2 °F 34.9 °F 30.16 in Calm     46% 0.00 in
09:48 55.4 °F 34.3 °F 30.16 in Calm     45% 0.00 in
09:54 55.8 °F 34.7 °F 30.16 in Calm     45% 0.00 in
09:58 55.9 °F 34.9 °F 30.16 in Calm     45% 0.00 in
10:03 56.1 °F 35.1 °F 30.16 in Calm     45% 0.00 in
10:08 56.3 °F 35.2 °F 30.16 in Calm     45% 0.00 in
10:14 56.7 °F 35.6 °F 30.15 in Calm     45% 0.00 in
10:19 56.8 °F 35.8 °F 30.15 in Calm     45% 0.00 in
10:24 56.8 °F 35.8 °F 30.14 in Calm     45% 0.00 in
10:29 56.7 °F 35.6 °F 30.14 in Calm     45% 0.01 in
10:31 56.5 °F 36.0 °F 30.14 in Calm     46% 0.01 in
10:37 56.7 °F 36.1 °F 30.16 in Calm     46% 0.01 in
10:44 56.7 °F 36.7 °F 30.16 in Calm     47% 0.01 in
10:49 56.8 °F 36.3 °F 30.16 in Calm     46% 0.01 in
10:53 57.0 °F 36.5 °F 30.16 in Calm     46% 0.01 in
10:58 57.0 °F 36.5 °F 30.16 in Calm     46% 0.01 in
11:04 57.2 °F 36.7 °F 30.16 in Calm     46% 0.01 in
11:09 57.0 °F 37.0 °F 30.16 in Calm     47% 0.01 in
11:14 57.0 °F 38.1 °F 30.16 in Calm     49% 0.01 in
11:16 57.0 °F 38.1 °F 30.16 in Calm     49% 0.01 in
11:24 56.8 °F 40.8 °F 30.16 in Calm     55% 0.01 in
11:29 56.8 °F 42.6 °F 30.16 in Calm     59% 0.01 in
11:33 57.0 °F 43.3 °F 30.16 in Calm     60% 0.00 in
11:38 57.4 °F 41.9 °F 30.16 in Calm     56% 0.00 in
11:44 57.4 °F 43.7 °F 30.16 in Calm     60% 0.01 in
11:48 57.6 °F 43.3 °F 30.16 in Calm     59% 0.01 in
11:54 57.4 °F 46.6 °F 30.16 in Calm     67% 0.01 in
11:58 57.2 °F 46.8 °F 30.15 in Calm     68% 0.01 in
12:03 57.4 °F 47.3 °F 30.15 in Calm     69% 0.01 in
12:09 57.0 °F 47.7 °F 30.15 in Calm     71% 0.01 in
12:13 57.0 °F 48.0 °F 30.15 in Calm     72% 0.01 in
12:19 57.0 °F 48.0 °F 30.15 in Calm     72% 0.01 in
12:24 56.8 °F 47.8 °F 30.15 in Calm     72% 0.01 in
12:29 57.0 °F 48.4 °F 30.15 in Calm     73% 0.01 in
12:31 57.0 °F 48.4 °F 30.15 in Calm     73% 0.01 in
12:39 57.4 °F 49.1 °F 30.14 in Calm     74% 0.01 in
12:43 57.6 °F 49.3 °F 30.14 in Calm     74% 0.00 in
12:48 57.7 °F 49.8 °F 30.14 in Calm     75% 0.00 in
12:54 57.9 °F 50.0 °F 30.13 in Calm     75% 0.00 in
12:59 58.3 °F 50.4 °F 30.13 in Calm     75% 0.00 in
13:04 58.5 °F 50.5 °F 30.13 in Calm     75% 0.00 in
13:09 58.6 °F 50.7 °F 30.12 in Calm     75% 0.00 in
13:14 58.8 °F 50.9 °F 30.12 in Calm     75% 0.00 in
13:19 59.2 °F 51.3 °F 30.11 in Calm     75% 0.00 in
13:24 59.4 °F 51.4 °F 30.11 in Calm     75% 0.00 in
13:29 59.7 °F 51.4 °F 30.11 in Calm     74% 0.00 in
13:34 59.9 °F 51.6 °F 30.11 in Calm     74% 0.00 in
13:38 60.1 °F 51.4 °F 30.11 in Calm     73% 0.00 in
13:44 60.3 °F 52.0 °F 30.11 in Calm     74% 0.00 in
13:49 60.3 °F 52.0 °F 30.11 in Calm     74% 0.00 in
13:54 60.3 °F 52.0 °F 30.11 in Calm     74% 0.00 in
13:59 60.3 °F 51.6 °F 30.11 in Calm     73% 0.00 in
14:03 60.3 °F 52.0 °F 30.11 in Calm     74% 0.00 in
14:09 60.3 °F 51.6 °F 30.11 in Calm     73% 0.00 in
14:14 60.3 °F 52.0 °F 30.11 in Calm     74% 0.00 in
14:19 60.3 °F 52.0 °F 30.12 in Calm     74% 0.00 in
14:24 60.1 °F 51.8 °F 30.12 in Calm     74% 0.00 in
14:29 60.1 °F 51.8 °F 30.13 in Calm     74% 0.00 in
14:34 60.1 °F 51.8 °F 30.12 in Calm     74% 0.00 in
14:38 60.1 °F 51.8 °F 30.12 in Calm     74% 0.00 in
14:44 60.3 °F 51.6 °F 30.12 in Calm     73% 0.00 in
14:47 60.3 °F 51.6 °F 30.12 in Calm     73% 0.00 in
14:53 60.1 °F 51.4 °F 30.12 in Calm     73% 0.00 in
14:58 59.9 °F 51.3 °F 30.12 in Calm     73% 0.00 in
15:03 59.7 °F 51.4 °F 30.11 in Calm     74% 0.00 in
15:08 59.7 °F 51.4 °F 30.11 in Calm     74% 0.00 in
15:14 59.5 °F 51.3 °F 30.11 in Calm     74% 0.00 in
15:17 59.5 °F 51.3 °F 30.11 in Calm     74% 0.00 in
15:24 59.2 °F 50.9 °F 30.11 in Calm     74% 0.00 in
15:29 58.8 °F 50.9 °F 30.11 in Calm     75% 0.00 in
15:34 58.6 °F 50.7 °F 30.12 in Calm     75% 0.00 in
15:39 58.5 °F 50.5 °F 30.11 in Calm     75% 0.00 in
15:43 58.5 °F 50.5 °F 30.11 in Calm     75% 0.00 in
15:49 58.5 °F 50.5 °F 30.11 in Calm     75% 0.00 in
15:54 58.5 °F 50.2 °F 30.11 in Calm     74% 0.00 in
15:59 58.5 °F 50.2 °F 30.11 in Calm     74% 0.00 in
16:04 58.5 °F 50.2 °F 30.11 in Calm     74% 0.00 in
16:09 58.5 °F 50.2 °F 30.12 in Calm     74% 0.00 in
16:14 58.3 °F 50.0 °F 30.12 in Calm     74% 0.00 in
16:19 58.5 °F 50.2 °F 30.12 in Calm     74% 0.00 in
16:24 58.5 °F 50.5 °F 30.12 in Calm     75% 0.00 in
16:29 58.5 °F 50.2 °F 30.12 in Calm     74% 0.00 in
16:34 58.5 °F 50.2 °F 30.12 in Calm     74% 0.00 in
16:39 58.5 °F 50.5 °F 30.12 in Calm     75% 0.00 in
16:44 58.5 °F 50.2 °F 30.12 in Calm     74% 0.00 in
16:49 58.5 °F 50.2 °F 30.12 in Calm     74% 0.00 in
16:54 58.5 °F 50.2 °F 30.12 in Calm     74% 0.00 in
16:59 58.3 °F 50.4 °F 30.12 in Calm     75% 0.00 in
17:03 58.3 °F 50.4 °F 30.11 in Calm     75% 0.00 in
17:08 58.5 °F 50.5 °F 30.12 in Calm     75% 0.00 in
17:12 58.5 °F 50.5 °F 30.11 in Calm     75% 0.00 in
17:16 58.5 °F 50.5 °F 30.11 in Calm     75% 0.00 in
17:24 58.6 °F 50.7 °F 30.11 in Calm     75% 0.00 in
17:29 58.6 °F 50.4 °F 30.11 in Calm     74% 0.00 in
17:31 58.6 °F 50.7 °F 30.11 in Calm     75% 0.00 in
17:39 58.6 °F 50.7 °F 30.11 in Calm     75% 0.00 in
17:43 58.6 °F 50.7 °F 30.11 in Calm     75% 0.00 in
17:48 58.6 °F 50.7 °F 30.11 in Calm     75% 0.00 in
17:54 58.6 °F 50.7 °F 30.11 in Calm     75% 0.00 in
17:59 58.6 °F 50.4 °F 30.12 in Calm     74% 0.00 in
18:04 58.5 °F 50.5 °F 30.12 in Calm     75% 0.00 in
18:09 58.5 °F 50.5 °F 30.13 in Calm     75% 0.00 in
18:14 58.3 °F 50.4 °F 30.13 in Calm     75% 0.00 in
18:24 58.3 °F 50.4 °F 30.13 in Calm     75% 0.00 in
18:29 58.3 °F 49.6 °F 30.13 in Calm     73% 0.00 in
18:34 57.9 °F 49.6 °F 30.13 in Calm     74% 0.00 in
18:38 57.9 °F 49.6 °F 30.13 in Calm     74% 0.00 in
18:44 57.7 °F 49.5 °F 30.13 in Calm     74% 0.00 in
18:48 57.9 °F 49.6 °F 30.13 in Calm     74% 0.00 in
18:53 57.9 °F 50.0 °F 30.12 in Calm     75% 0.00 in
18:58 57.9 °F 50.0 °F 30.13 in Calm     75% 0.00 in
19:04 58.1 °F 50.2 °F 30.13 in Calm     75% 0.00 in
19:09 58.1 °F 50.2 °F 30.13 in Calm     75% 0.00 in
19:13 58.1 °F 50.2 °F 30.13 in Calm     75% 0.00 in
19:19 58.3 °F 50.4 °F 30.13 in Calm     75% 0.00 in
19:24 58.3 °F 50.4 °F 30.13 in Calm     75% 0.00 in
19:29 58.3 °F 50.4 °F 30.12 in Calm     75% 0.00 in
19:32 58.5 °F 50.5 °F 30.12 in Calm     75% 0.00 in
19:39 58.3 °F 50.4 °F 30.12 in Calm     75% 0.00 in
19:43 58.3 °F 50.4 °F 30.13 in Calm     75% 0.00 in
19:49 58.3 °F 50.4 °F 30.13 in Calm     75% 0.00 in
19:54 58.3 °F 50.4 °F 30.12 in Calm     75% 0.00 in
19:58 58.3 °F 50.0 °F 30.12 in Calm     74% 0.00 in
20:04 58.1 °F 49.8 °F 30.13 in Calm     74% 0.00 in
20:09 57.9 °F 49.6 °F 30.12 in Calm     74% 0.00 in
20:14 57.7 °F 49.5 °F 30.12 in Calm     74% 0.00 in
20:19 57.7 °F 49.5 °F 30.12 in Calm     74% 0.00 in
20:24 57.7 °F 49.5 °F 30.12 in Calm     74% 0.00 in
20:29 57.6 °F 48.9 °F 30.13 in Calm     73% 0.00 in
20:34 57.6 °F 48.9 °F 30.13 in Calm     73% 0.00 in
20:39 57.6 °F 48.9 °F 30.13 in Calm     73% 0.00 in
20:41 57.4 °F 48.7 °F 30.13 in Calm     73% 0.00 in
20:47 57.2 °F 48.6 °F 30.13 in Calm     73% 0.00 in
20:54 57.0 °F 48.4 °F 30.13 in Calm     73% 0.00 in
20:59 56.8 °F 48.2 °F 30.14 in Calm     73% 0.00 in
21:04 56.8 °F 48.2 °F 30.14 in Calm     73% 0.00 in
21:09 56.7 °F 47.7 °F 30.14 in Calm     72% 0.00 in
21:12 56.7 °F 47.7 °F 30.14 in Calm     72% 0.00 in
21:18 56.7 °F 47.7 °F 30.14 in Calm     72% 0.00 in
21:22 56.5 °F 47.5 °F 30.14 in Calm     72% 0.00 in
21:29 56.3 °F 46.9 °F 30.14 in Calm     71% 0.00 in
21:33 56.3 °F 46.9 °F 30.14 in Calm     71% 0.00 in
21:37 56.1 °F 46.8 °F 30.14 in Calm     71% 0.00 in
21:44 56.1 °F 46.4 °F 30.15 in Calm     70% 0.00 in
21:48 55.9 °F 46.2 °F 30.15 in Calm     70% 0.00 in
21:53 55.9 °F 45.9 °F 30.15 in Calm     69% 0.00 in
21:59 55.8 °F 45.7 °F 30.15 in Calm     69% 0.00 in
22:04 55.8 °F 45.7 °F 30.15 in Calm     69% 0.00 in
22:08 55.8 °F 45.7 °F 30.15 in Calm     69% 0.00 in
22:14 55.6 °F 45.5 °F 30.14 in Calm     69% 0.00 in
22:18 55.4 °F 45.3 °F 30.14 in Calm     69% 0.00 in
22:24 55.2 °F 45.1 °F 30.15 in Calm     69% 0.00 in
22:29 55.2 °F 45.1 °F 30.14 in Calm     69% 0.00 in
22:33 55.2 °F 45.1 °F 30.14 in Calm     69% 0.00 in
22:39 55.2 °F 44.8 °F 30.15 in Calm     68% 0.00 in
22:43 55.0 °F 45.1 °F 30.15 in Calm     69% 0.00 in
22:47 55.0 °F 44.6 °F 30.15 in Calm     68% 0.00 in
22:54 55.0 °F 44.6 °F 30.15 in Calm     68% 0.00 in
22:59 55.0 °F 44.6 °F 30.14 in Calm     68% 0.00 in
23:03 55.0 °F 44.6 °F 30.14 in Calm     68% 0.00 in
23:09 55.0 °F 44.2 °F 30.14 in Calm     67% 0.00 in
23:13 55.0 °F 44.2 °F 30.14 in Calm     67% 0.00 in
23:19 55.0 °F 44.2 °F 30.14 in Calm     67% 0.00 in
23:24 55.0 °F 44.2 °F 30.14 in Calm     67% 0.00 in
23:29 55.0 °F 44.2 °F 30.14 in Calm     67% 0.00 in
23:34 55.2 °F 44.4 °F 30.14 in Calm     67% 0.00 in
23:38 55.2 °F 44.4 °F 30.14 in Calm     67% 0.00 in
23:41 55.2 °F 44.4 °F 30.14 in Calm     67% 0.00 in
23:47 55.2 °F 44.4 °F 30.13 in Calm     67% 0.00 in
23:54 55.2 °F 44.1 °F 30.13 in Calm     66% 0.00 in
23:59 55.2 °F 44.1 °F 30.13 in Calm     66% 0.00 in
Ellijay Weather
Compliments of Weather Underground - 2.5 mb